{"data":{"norad_id":52151,"intl_designator":"2022-031B","name":"PUJIANG 2 (PJ-2)","alt_names":[],"object_type":"PAYLOAD","status":"ACTIVE","operator":null,"country":"PRC","launch_date":"2022-03-29","launch_site_code":"TAISC","launch_vehicle":null,"mission":null,"orbit_class":"UNKNOWN","rcs_meters":null,"size_class":null,"mass_kg":null,"dimensions":null,"purposes":[],"wikipedia_slug":null,"has_3d_model":false,"image_url":null,"decayed_at":null,"tle_current":{"epoch":"2026-09-20T22:12:54.805248Z","epoch_age_seconds":84038,"freshness":"FRESH","line1":"1 52151U 22031B   26263.92563432  .00000352  00000+0  38093-4 0  9991","line2":"2 52151  97.8626  89.5889 0010498 242.2711 117.7445 14.94399052244096","mean_motion":14.94399052,"eccentricity":0.0010498,"inclination_deg":97.8626,"raan_deg":89.5889,"arg_perigee_deg":242.2711,"mean_anomaly_deg":117.7445,"bstar":3.8093e-5,"rev_number":24409,"period_min":96.359804168291,"perigee_km":576.92956040718,"apogee_km":591.54776434791,"semimajor_km":6962.3756623775,"source":"CELESTRAK","updated_at":"2026-09-21T09:00:08.491067Z"}}}